Key statistics
Satellite NOAA 17 DEB at a glance.
Uptime
8181
Days in orbit
Revolutions
≈ 14.4
Per day
Orbit
SSO
Sun Synchronous Orbit
Inclination
98.9
Latest
Satellite identification and parameters
Extended collection of information and parameters for NOAA 17 DEB.
Object identification
Identified? True
Debris? True
Object name: NOAA 17 DEB
International designator: 2002-032AJ
Object number (NORAD): 48617
Object ID (CCSDS): 48617
Country: UNITED STATES OF AMERICA (US)
Current information (Y/N): Y
RCS size: SMALL
Orbital parameters
Decay date: Nov. 16, 2024
Period: 100.137 minutes
Inclination: 98.8867 deg
SMA: 7143.13 km
Apoapsis: 797.782 km
Periapsis: 732.208 km
RAAN: 21.3495 deg
Eccentricy: 0.00459
Argument of periapsis: 255.5582 deg
Mean anomaly: 104.0507 deg
Mean motion: 14.38036433 rev/day
Mean motion (dot): 0.00018793 rev/day2
B* drag term: 0.0061321 1/REarth
Two-line elements (TLE)
Creation date: Feb. 10, 2024, 5:18 p.m.
Reference frame: TEME
Reference center: EARTH
Epoch: Feb. 10, 2024, 4:24 a.m. UTC
TLE line 0: 0 NOAA 17 DEB
TLE line 1: 1 48617U 02032AJ 24041.18337269 .00018793 00000-0 61321-2 0 9996
TLE line 2: 2 48617 98.8867 21.3495 0045900 255.5582 104.0507 14.38036433148092
Live tracking on map
Satellite NOAA 17 DEB has decayed and is no longer in orbit. No tracking available.
In-orbit conjunctions
Satellite NOAA 17 DEB has decayed and is no longer in orbit. No conjunctions available.
Associated space launch
NOAA M carried weather imagers and microwave and infrared sounders, as well as a SARSAT search-and-rescue package. It had an on-orbit mass of 1475 kg.
NOAA 17 DEB was lifted into orbit during the mission ‘Titan II SLV | NOAA 17’, on board a Titan II SLV space rocket.
The launch took place on June 24, 2002, 6:23 p.m. from Space Launch Complex 4W.
For more information about the launch, click the button.
Titan II SLV | NOAA 17
Agency: N/A
Status: Launch Successful
Launch date: June 24, 2002, 6:23 p.m. UTC
Rocket: Titan II SLV
Launch pad: Space Launch Complex 4W
Location: Vandenberg SFB, CA, USA
...
Latest news about this satellite
There are no fresh news available about this satellite. Check back as we update our databases every day.
Newsletter sign-up
Weekly statistics, charts and insights to help you stay on top of the space industry.
